Theta_e
290 289 288 288 288 287 286 286 285 285 285 284 284 284 284 284 283 283 283 283 283 283 283 283 283 283 283 283 283 283 283 282 281 282 282 281 281 281 280 280 281 281
288 288 288 287 287 287 286 286 285 285 284 284 284 284 283 283 283 283 283 283 283 283 283 282 283 283 282 282 282 282 281 281 281 281 281 281 280 280 280 280 279 279
288 287 286 286 286 285 285 285 285 285 284 284 283 283 283 283 282 282 282 283 282 282 282 282 282 282 282 282 282 282 281 281 280 280 280 280 280 279 279 279 279 279
287 287 286 286 286 285 285 284 284 283 283 283 283 283 283 282 282 282 282 282 282 281 281 281 281 281 281 281 281 281 280 280 280 280 279 279 279 279 278 279 278 278
286 286 286 285 285 284 284 284 283 283 283 283 282 282 282 282 281 281 281 281 281 280 280 280 280 280 280 280 280 279 279 279 279 279 279 278 278 278 278 278 277 276
286 286 285 284 284 283 283 283 283 283 282 282 282 282 282 281 281 281 280 280 280 280 279 279 279 279 279 279 279 279 279 278 278 278 278 277 277 278 277 277 277 276
285 284 283 284 283 283 283 283 282 282 282 282 282 281 281 280 280 280 280 280 279 279 279 279 278 278 278 278 278 278 278 277 277 278 277 277 277 276 277 277 277 276
284 284 283 283 283 282 282 282 282 282 281 281 281 280 280 280 280 279 279 279 279 278 278 278 278 278 278 278 278 277 277 277 277 277 277 276 276 276 276 276 276 276
283 283 283 282 282 282 281 281 281 281 281 281 280 279 280 279 279 279 278 278 278 278 278 278 278 277 277 277 277 277 276 276 276 276 276 276 275 275 275 276 275 275
283 282 281 281 281 281 280 280 280 280 280 280 279 279 279 279 279 278 278 278 278 277 277 277 277 277 276 277 277 277 276 276 276 276 276 276 275 275 275 275 275 274
282 281 281 281 281 281 280 280 279 279 280 279 279 278 278 278 278 278 278 278 277 277 277 276 276 276 276 276 276 276 276 276 275 275 275 275 275 275 275 275 275 275
282 281 281 280 280 280 280 279 279 279 279 279 279 278 278 278 277 278 278 277 277 277 277 276 276 276 276 276 276 276 275 275 275 275 275 274 275 275 275 275 275 275
281 281 281 281 280 280 279 279 279 279 278 278 278 278 277 277 277 277 277 277 277 276 276 276 275 275 275 275 275 275 275 275 275 274 274 274 274 274 274 274 275 274
282 282 281 280 280 280 279 279 279 279 278 278 278 277 277 277 277 277 277 277 276 276 275 275 275 274 274 275 275 275 275 275 275 274 274 274 274 274 274 274 274 274
282 282 281 281 280 279 279 279 279 278 278 278 278 278 278 278 277 277 276 276 276 276 275 275 274 274 275 275 275 275 275 275 275 274 274 274 274 273 274 274 274 274
281 281 280 280 280 279 279 279 279 278 278 278 278 278 278 278 277 277 276 276 275 275 275 274 274 274 276 278 278 276 276 275 275 275 274 274 274 274 273 273 273 273
281 281 280 280 280 280 279 279 279 278 278 278 277 277 277 277 276 276 275 275 275 274 274 274 274 274 279 280 280 279 276 276 275 275 274 274 274 273 273 273 273 273
281 281 280 280 280 279 279 279 278 278 278 277 277 276 276 276 276 275 275 275 275 274 274 274 274 277 281 282 282 281 278 276 275 275 274 274 274 273 273 273 273 273
282 281 280 280 280 279 279 278 278 278 277 277 276 277 276 275 276 275 275 275 274 274 274 274 274 278 282 283 283 282 281 277 275 275 274 274 274 273 273 273 273 272
282 281 280 280 280 279 278 278 277 277 277 277 277 276 276 276 275 275 275 274 274 274 274 274 273 279 283 283 283 283 282 278 275 275 274 274 274 273 273 273 273 272
282 281 280 280 279 279 279 278 278 278 277 277 276 276 276 275 275 275 274 274 274 274 274 274 273 279 283 284 284 284 283 279 275 275 274 274 274 274 273 273 273 272
282 281 281 280 279 279 278 278 278 278 277 277 277 276 277 276 276 276 275 274 274 274 274 273 274 280 283 284 284 284 284 278 274 274 274 274 274 274 273 273 273 272
282 281 281 280 279 279 278 279 278 277 277 277 276 276 276 276 275 275 275 274 274 274 274 274 274 278 282 284 285 285 284 277 275 274 274 273 273 273 273 273 272 272
282 282 281 280 279 279 279 279 279 278 277 277 276 276 276 276 276 275 275 275 274 274 274 275 274 277 282 283 285 285 284 278 276 275 274 274 273 273 273 273 272 273
282 282 281 280 279 280 279 279 278 278 278 277 277 277 276 276 276 275 275 275 275 275 276 276 276 276 281 283 284 285 285 280 277 276 275 274 273 273 273 273 272 273
282 282 281 280 280 280 280 279 279 278 277 276 276 276 276 275 275 275 275 275 275 275 275 276 276 276 278 282 284 285 286 282 279 277 275 275 274 273 272 272 272 272
Wind_Speed
10 11 11 9 9 8 8 9 6 8 8 8 8 7 8 7 7 6 6 6 6 7 7 7 7 7 6 6 6 7 7 7 6 5 7 7 7 8 7 8 6 6
10 10 8 6 4 4 5 6 9 9 9 9 7 7 6 7 6 6 6 7 6 6 6 5 5 5 6 6 6 8 7 7 8 4 8 8 7 7 7 8 8 6
8 7 8 9 8 9 9 8 6 7 8 9 9 7 7 6 6 5 4 5 6 6 5 5 5 5 6 6 7 7 7 8 8 6 7 8 6 7 7 7 6 6
9 10 10 9 7 8 9 9 8 6 7 8 9 7 7 6 5 6 5 5 6 6 5 5 5 6 6 7 7 7 7 7 6 7 8 6 6 7 7 6 6 5
12 11 9 7 6 6 6 10 11 9 9 9 8 7 7 7 6 6 5 5 6 6 5 6 6 7 6 7 7 8 6 7 6 6 7 7 5 6 5 6 7 7
8 8 8 10 10 9 8 8 10 11 9 9 8 7 6 6 6 6 6 7 6 6 6 6 7 6 6 7 7 7 6 6 6 6 8 8 6 5 5 5 7 7
10 9 9 7 9 9 8 9 8 8 7 8 8 7 7 7 6 6 6 6 7 6 6 7 8 7 6 7 7 7 6 6 7 7 8 7 7 7 5 6 6 7
10 8 7 6 10 10 9 8 8 8 8 8 9 7 7 7 7 6 6 7 7 7 7 7 7 8 7 6 7 7 7 4 6 7 8 8 7 7 7 4 6 7
8 8 8 9 10 9 9 8 7 7 6 8 8 8 7 6 7 7 7 7 7 6 7 7 7 7 6 7 7 7 8 6 5 6 8 8 7 6 6 6 6 6
9 7 8 8 10 8 10 8 7 7 6 7 7 7 8 7 6 8 7 7 7 7 7 7 8 7 7 6 6 7 7 7 6 6 5 6 7 7 7 6 7 7
9 9 9 10 9 8 11 10 9 8 7 8 8 8 7 8 7 6 7 7 7 8 8 7 7 8 8 7 5 5 6 6 6 6 6 6 6 6 6 6 7 6
10 9 10 13 12 11 11 11 9 9 9 7 8 9 8 7 8 7 7 7 7 7 7 7 7 7 7 7 6 6 5 4 4 5 5 5 6 6 6 5 5 6
10 10 12 12 11 10 9 9 9 9 9 9 8 8 9 9 8 7 6 6 8 8 8 8 7 7 6 6 6 6 5 6 5 5 5 4 5 5 5 5 4 5
10 12 12 12 9 8 9 8 9 9 9 8 9 10 9 9 9 9 8 6 7 8 8 7 8 7 7 7 6 6 6 6 7 5 6 5 4 4 4 4 5 5
11 11 10 11 10 10 10 9 8 9 10 9 10 8 6 7 7 8 9 8 6 8 8 7 7 7 7 8 8 7 6 8 7 6 6 6 5 4 4 4 4 4
11 11 11 11 9 10 11 11 9 9 9 11 11 10 9 9 9 8 8 8 8 7 7 7 6 6 9 14 11 9 8 6 6 6 5 5 6 5 4 4 4 4
11 11 11 12 11 11 10 11 11 10 9 9 9 8 10 9 9 10 9 8 9 10 10 7 6 6 14 15 15 15 9 9 9 8 5 5 5 6 6 5 4 4
12 12 12 12 12 12 12 11 10 9 9 10 10 10 9 8 9 9 9 8 7 8 8 7 6 10 15 15 15 16 12 9 7 7 6 6 6 6 5 5 6 5
12 13 13 11 12 12 11 11 11 10 10 10 11 10 9 10 10 10 10 9 9 10 9 8 8 13 15 16 15 15 15 9 4 5 6 6 6 6 6 6 6 5
12 12 12 11 10 11 12 13 13 13 12 10 10 10 12 12 11 11 9 10 10 10 9 8 8 12 17 17 16 16 15 11 5 6 5 6 6 7 6 7 8 7
12 12 13 13 13 13 13 14 15 14 15 13 13 14 14 13 13 12 10 10 9 8 8 8 7 14 16 17 16 16 16 11 6 5 5 5 6 7 8 7 8 7
12 11 11 11 13 12 13 13 12 13 13 10 8 7 7 8 8 9 11 10 9 8 8 8 7 15 16 17 17 16 18 7 6 6 6 6 7 7 7 7 7 8
12 12 11 12 12 12 12 12 12 10 8 8 10 10 10 10 10 10 10 10 11 10 10 8 7 13 17 17 17 18 14 6 6 5 6 6 6 7 6 7 7 9
12 12 12 12 11 12 12 11 10 9 11 10 12 12 11 11 10 9 8 9 11 11 10 10 9 12 18 18 19 20 15 8 7 6 6 6 5 5 5 6 8 14
10 11 11 12 12 11 11 11 11 11 8 7 6 7 8 7 7 8 8 7 8 10 10 11 9 11 18 18 20 20 16 8 7 6 6 7 6 6 6 6 6 10
9 11 11 12 12 10 9 9 8 7 7 8 5 5 5 5 5 6 8 8 8 9 9 10 10 9 12 20 20 21 22 11 9 9 10 11 8 6 5 7 8 8
Wind_Direction
176 176 175 178 180 177 162 160 166 157 146 143 157 161 165 149 153 154 140 141 145 138 142 138 135 136 135 130 126 110 102 101 93 102 104 105 113 123 121 124 108 111
181 178 179 175 163 171 185 166 157 163 150 152 149 144 137 142 154 144 147 147 140 131 122 118 119 122 124 119 118 110 106 106 103 97 111 107 115 108 106 111 111 114
178 177 179 178 176 177 168 144 149 158 148 142 132 142 138 145 137 135 136 137 126 117 114 113 118 116 112 108 109 103 106 107 106 112 104 109 113 109 110 113 113 121
183 188 185 183 174 170 153 139 138 134 128 135 151 143 137 133 129 133 131 129 118 112 106 110 111 106 101 100 98 90 93 88 99 113 105 100 100 110 118 116 117 118
184 185 185 176 164 156 158 155 153 153 159 138 123 136 137 137 139 137 131 115 111 112 113 111 103 98 95 92 91 97 92 103 108 113 109 109 114 115 125 126 125 118
187 189 181 173 163 157 166 167 157 153 145 144 145 134 127 125 130 132 127 121 120 119 117 111 105 96 95 95 94 96 109 113 122 120 113 119 124 118 125 127 124 122
181 177 177 170 156 160 167 160 147 145 148 133 127 131 129 132 132 130 126 121 123 124 123 121 115 109 102 103 102 110 108 115 128 131 123 125 128 127 128 128 129 124
179 172 169 165 161 150 158 152 146 149 139 137 137 126 131 131 132 129 124 129 127 127 125 119 114 112 114 111 119 121 123 128 137 138 129 131 134 135 140 141 138 131
172 170 161 168 163 151 145 146 139 132 139 142 136 130 127 132 136 131 132 133 131 130 127 123 123 118 118 120 129 136 139 146 149 147 141 140 142 142 146 147 141 138
173 162 160 163 164 158 148 144 138 134 137 133 130 131 132 131 128 134 135 142 136 134 130 132 129 125 123 129 140 147 145 147 149 145 136 135 139 149 156 161 152 143
164 164 167 164 163 159 151 143 144 143 143 143 140 135 131 131 135 136 141 148 149 143 140 139 136 130 128 132 136 144 148 146 150 145 140 141 148 156 165 163 164 160
172 166 170 160 161 157 156 153 149 151 148 146 149 137 133 137 140 147 153 151 143 137 134 134 131 127 129 132 137 142 142 142 135 136 136 139 152 162 167 178 170 166
169 172 175 174 167 160 153 153 154 151 149 148 149 140 140 145 149 144 152 148 145 141 143 142 134 126 125 133 137 144 146 146 139 135 136 140 154 156 159 173 182 175
172 176 175 163 158 151 156 152 148 149 147 142 144 147 152 156 155 154 150 151 149 142 139 135 136 132 132 138 146 146 152 156 160 146 142 142 142 148 159 174 185 188
172 174 170 166 160 155 156 152 152 156 152 151 155 150 148 147 142 141 143 145 145 146 142 146 142 147 150 153 152 153 153 162 157 149 149 149 146 149 166 174 186 189
171 168 166 163 154 157 160 157 155 155 155 158 161 159 151 151 151 147 149 149 145 146 144 142 153 150 161 161 161 157 162 160 150 152 153 151 152 157 171 183 189 187
168 170 163 165 163 158 157 157 158 161 164 159 152 149 150 150 151 153 157 157 158 157 158 158 162 162 169 170 167 165 159 164 164 163 155 156 164 170 175 180 187 188
168 164 166 167 163 163 162 161 155 154 159 158 153 151 154 150 155 159 154 157 157 159 161 165 159 171 173 174 172 170 169 165 160 161 162 170 173 176 175 179 185 186
167 166 167 169 172 163 155 151 153 157 159 160 163 158 146 156 162 157 164 162 163 164 168 166 162 177 179 176 175 173 170 156 148 153 163 171 173 175 178 183 180 186
168 166 167 168 166 160 156 158 161 166 167 165 157 156 163 165 165 166 163 168 172 170 166 166 163 180 181 179 177 175 172 166 152 161 174 175 173 178 183 191 189 185
170 172 171 167 168 168 166 168 171 171 171 172 172 171 168 166 164 167 172 174 173 166 157 165 176 184 183 181 180 179 177 165 160 162 177 186 188 188 191 191 189 191
170 172 170 169 169 170 172 173 174 174 172 168 162 164 169 163 165 165 168 169 163 159 158 169 177 187 187 187 186 185 180 153 164 171 184 193 197 193 188 194 195 196
170 169 172 174 173 172 174 173 170 166 162 160 164 170 172 177 172 173 172 164 162 167 167 173 174 191 193 193 191 190 185 144 167 176 192 193 204 191 184 188 194 197
175 173 171 171 171 177 175 171 170 170 173 172 174 171 177 179 174 167 165 166 167 168 175 174 181 192 196 199 198 196 191 169 173 181 194 197 199 190 186 197 204 206
171 169 169 171 176 178 173 170 172 171 165 161 169 172 177 167 164 161 157 163 171 176 176 179 182 193 200 202 202 203 200 181 179 184 189 206 195 195 197 201 210 214
168 171 171 171 171 165 165 162 149 137 140 155 152 148 141 146 149 156 164 177 179 180 186 190 190 194 200 205 206 208 208 196 193 192 210 212 203 195 188 213 212 221